Weather History for Los Alamitos, CA

Change the Weather History Date:

Wednesday, January 16, 2013

  Actual Average Record
Temperature  
Mean Temperature 52 °F -  
Max Temperature 70 °F 68 °F 91 °F (2003)
Min Temperature 34 °F 49 °F 32 °F (2007)
Degree Days  
Heating Degree Days 13    
Growing Degree Days 2 (Base 50)    
Moisture  
Dew Point 35 °F    
Average Humidity 60    
Maximum Humidity 82    
Minimum Humidity 21    
Precipitation  
Precipitation 0.00 in - - ()
Sea Level Pressure  
Sea Level Pressure 30.26 in    
Wind  
Wind Speed 3 mph (NNW)    
Max Wind Speed 8 mph    
Max Gust Speed -    
Visibility 10 miles    
Events      
Averages and records for this station are not official NWS values.
T = Trace of Precipitation, MM = Missing Value Source: NWS Daily Summary

Daily Weather History Graph

Daily Weather History Graph

Search for Another Location

Airport:

Trip Planner

Search our weather history database for the weather conditions in past years. The results will help you decide how hot, cold, wet, or windy it might be!

Date:

Astronomy

Jan. 16, 2013 Rise Set
Actual Time 6:56 AM PST 5:07 PM PST
Civil Twilight 6:29 AM PST 5:34 PM PST
Nautical Twilight 5:59 AM PST 6:05 PM PST
Astronomical Twilight 5:29 AM PST 6:35 PM PST
Moon 9:53 AM PST (1/16) 10:44 PM PST (1/16)
Length of Visible Light 11h 05m
Length of Day
10h 11m
Waxing Crescent, 29% of the Moon is Illuminated
Jan 16
Waxing Crescent
Jan 18
First Quarter
Jan 26
Full
Feb 3
Last Quarter
Feb 9
New

Hourly Weather History & Observations

Time (PST) Temp. Windchill Dew Point Humidity Pressure Visibility Wind Dir Wind Speed Gust Speed Precip Events Conditions
12:58 AM 37.8 °F - 30.4 °F 75% 30.36 in 10.0 mi NE 2.3 mph - N/A   Clear
1:58 AM 38.1 °F 35.7 °F 30.4 °F 74% 30.36 in 10.0 mi North 3.5 mph - N/A   Clear
2:58 AM 37.4 °F - 32.0 °F 81% 30.36 in 10.0 mi Calm Calm - N/A   Clear
3:58 AM 35.6 °F - 30.2 °F 81% 30.35 in 10.0 mi WNW 2.3 mph - N/A   Clear
4:58 AM 36.3 °F 33.7 °F 30.9 °F 81% 30.34 in 10.0 mi NNW 3.5 mph - N/A   Clear
5:58 AM 36.1 °F - 30.9 °F 81% 30.33 in 10.0 mi North 2.3 mph - N/A   Clear
6:58 AM 34.2 °F 31.2 °F 29.3 °F 82% 30.34 in 10.0 mi North 3.5 mph - N/A   Scattered Clouds
7:58 AM 39.6 °F - 33.4 °F 79% 30.36 in 10.0 mi NNW 2.3 mph - N/A   Scattered Clouds
8:58 AM 47.7 °F - 32.2 °F 55% 30.36 in 10.0 mi North 2.3 mph - N/A   Partly Cloudy
9:58 AM 54.3 °F - 36.3 °F 51% 30.35 in 10.0 mi NW 2.3 mph - N/A   Partly Cloudy
10:58 AM 59.9 °F - 36.5 °F 42% 30.31 in 10.0 mi Variable 2.3 mph - N/A   Partly Cloudy
11:58 AM 64.0 °F - 33.3 °F 32% 30.26 in 10.0 mi Calm Calm - N/A   Clear
12:58 PM 68.7 °F - 28.8 °F 23% 30.22 in 10.0 mi Variable 3.5 mph - N/A   Clear
1:58 PM 70.2 °F - 28.0 °F 21% 30.19 in 10.0 mi West 4.6 mph - N/A   Clear
2:58 PM 70.7 °F - 31.3 °F 23% 30.18 in 10.0 mi West 8.1 mph - N/A   Clear
3:58 PM 62.2 °F - 44.6 °F 52% 30.18 in 10.0 mi South 3.5 mph - N/A   Clear
4:58 PM 62.2 °F - 43.9 °F 51% 30.18 in 10.0 mi WNW 6.9 mph - N/A   Clear
5:58 PM 57.4 °F - 39.9 °F 52% 30.18 in 10.0 mi NW 4.6 mph - N/A   Clear
6:58 PM 54.9 °F - 38.7 °F 54% 30.19 in 10.0 mi NNW 3.5 mph - N/A   Clear
7:58 PM 50.0 °F - 38.3 °F 64% 30.18 in 10.0 mi NNW 2.3 mph - N/A   Clear
8:58 PM 47.7 °F - 38.5 °F 70% 30.16 in 10.0 mi Calm Calm - N/A   Clear
9:58 PM 47.7 °F - 39.6 °F 73% 30.15 in 10.0 mi NW 5.8 mph - N/A   Clear
10:58 PM 45.9 °F 42.9 °F 37.2 °F 72% 30.14 in 10.0 mi NNW 5.8 mph - N/A   Clear
11:58 PM 46.6 °F - 35.2 °F 65% 30.13 in 10.0 mi NW 5.8 mph - N/A   Clear